sat.trackr.live / text

‹ back to catalog

STARLINK-30216

NORAD 57451 · 2023-105X

PAYLOAD ACTIVE UNKNOWN

§ Identity

Operator
Country
US
Launch date
2023-07-24
Launch site
AFETR
Launch vehicle
Mass (kg)
RCS (m²)

Purposes: comms

External: N2YO · Heavens-Above · Gunter

§ Orbital elements

Epoch: 2026-09-20T23:27:33.511680Z

Period
94.27 min
Inclination
43.0029°
Eccentricity
0.0000917
Mean motion
15.27576323 rev/d
Perigee alt
482.4 km
Apogee alt
483.7 km
Semi-major
6,861.2 km
B*
-1.4079e-6
RAAN
236.5484°
Arg perigee
272.2027°
Mean anomaly
87.8720°
Rev number
17,529

§ Raw data

STARLINK-302161 57451U 23105X   26263.97747120 -.00000301  00000+0 -14079-5 0  99902 57451  43.0029 236.5484 0000917 272.2027  87.8720 15.27576323175290

JSON: /api/v1/satellites/57451 · /tle

For live sub-satellite position, see the globe view (requires WebGL).

§ Visibility from observer

Set your observer location to see the next 7 days of passes ≥ 10°. The values pass through the URL so the page stays shareable.

No JS? Fill the form by hand. The geolocation button needs JavaScript.